Location: Newark
(33.6439°N, 114.9881°W)
Time: 16:13:07
(UTC+00:00)

A-11 Canister half - Pass Details

Date: 28 August 2019
Orbit: 1527 x 1682 km, 47.3° (Epoch: 16 September)

Event Time Altitude Azimuth Distance (km) Brightness Sun altitude
Rises 20:29:02 0° 284° (WNW) 4,862 11.7 63.5°
Reaches altitude 10° 20:32:33 10° 293° (WNW) 3,895 11.3 63.2°
Maximum altitude 20:41:38 37° 358° (N) 2,398 10.3 62.2°
Drops below altitude 10° 20:50:51 10° 64° (ENE) 3,946 11.0 61.1°
Sets 20:54:25 0° 72° (ENE) 4,931 11.4 60.6°
